{"data":{"norad_id":65823,"epoch":"2026-05-25T03:23:19.868352Z","epoch_age_seconds":56018,"freshness":"FRESH","line1":"1 65823U 25221A   26145.14120218  .00014171  00000+0  48956-3 0  9991","line2":"2 65823  53.1569  93.5771 0001039  84.9295 275.1824 15.30207677 37789","mean_motion":15.30207677,"eccentricity":0.0001039,"inclination_deg":53.1569,"raan_deg":93.5771,"arg_perigee_deg":84.9295,"mean_anomaly_deg":275.1824,"bstar":0.00048956,"rev_number":3778,"period_min":94.104873583117,"perigee_km":474.48008647853,"apogee_km":475.90420827536,"semimajor_km":6853.3291473769,"source":"CELESTRAK","updated_at":"2026-05-25T13:38:20.941378Z"}}